Weather History for KSUA - April, 2013

Change the Weather History Date:

Tuesday, April 9, 2013

  Actual Average Record
Temperature  
Mean Temperature 76 °F -  
Max Temperature 80 °F 81 °F 91 °F (1949)
Min Temperature 71 °F 63 °F 37 °F (1971)
Cooling Degree Days 10    
Growing Degree Days 26 (Base 50)    
Moisture  
Dew Point 64 °F    
Average Humidity 73    
Maximum Humidity 88    
Minimum Humidity 46    
Precipitation  
Precipitation 0.00 in - - ()
Sea Level Pressure  
Sea Level Pressure 30.13 in    
Wind  
Wind Speed 9 mph (ESE)    
Max Wind Speed 18 mph    
Max Gust Speed 23 mph    
Visibility 9 miles    
Events Rain    
Averages and records for this station are not official NWS values.
T = Trace of Precipitation, MM = Missing Value Source: NWS Daily Summary

Daily Weather History Graph

Daily Weather History Graph

Search for Another Location

Airport or City:

Trip Planner

Search our weather history database for the weather conditions in past years. The results will help you decide how hot, cold, wet, or windy it might be!

Date:

Astronomy

Apr. 09, 2013 Rise Set
Actual Time 7:02 AM EDT 7:42 PM EDT
Civil Twilight 6:39 AM EDT 8:06 PM EDT
Nautical Twilight 6:11 AM EDT 8:33 PM EDT
Astronomical Twilight 5:43 AM EDT 9:02 PM EDT
Moon 6:21 AM EDT (4/9) 7:15 PM EDT (4/9)
Length of Visible Light 13h 27m
Length of Day
12h 39m
Waning Crescent, 1% of the Moon is Illuminated
Apr 9
Waning Crescent
Apr 10
New
Apr 18
First Quarter
Apr 25
Full
May 2
Last Quarter

Hourly Weather History & Observations

Time (EDT) Temp. Heat Index Dew Point Humidity Pressure Visibility Wind Dir Wind Speed Gust Speed Precip Events Conditions
12:15 AM 71.6 °F - 64.4 °F 78% 30.15 in 10.0 mi ESE 6.9 mph - N/A   Clear
12:35 AM 71.6 °F - 64.4 °F 78% 30.15 in 10.0 mi ESE 8.1 mph - N/A   Clear
12:55 AM 71.6 °F - 64.4 °F 78% 30.15 in 10.0 mi ESE 9.2 mph - N/A   Clear
1:15 AM 71.6 °F - 64.4 °F 78% 30.14 in 10.0 mi ESE 9.2 mph - N/A   Scattered Clouds
1:35 AM 71.6 °F - 64.4 °F 78% 30.13 in 10.0 mi ESE 8.1 mph - N/A   Scattered Clouds
2:15 AM 71.6 °F - 64.4 °F 78% 30.12 in 10.0 mi ESE 6.9 mph - N/A   Scattered Clouds
2:35 AM 71.6 °F - 64.4 °F 78% 30.12 in 10.0 mi ESE 8.1 mph - N/A   Scattered Clouds
2:55 AM 71.6 °F - 64.4 °F 78% 30.11 in 10.0 mi ESE 6.9 mph - N/A   Clear
3:15 AM 71.6 °F - 64.4 °F 78% 30.10 in 10.0 mi ESE 9.2 mph - N/A   Clear
3:35 AM 71.6 °F - 64.4 °F 78% 30.09 in 10.0 mi ESE 9.2 mph - N/A   Scattered Clouds
3:55 AM 71.6 °F - 64.4 °F 78% 30.09 in 10.0 mi ESE 8.1 mph - N/A   Clear
4:15 AM 71.6 °F - 64.4 °F 78% 30.08 in 10.0 mi SE 9.2 mph - N/A   Scattered Clouds
4:35 AM 71.6 °F - 64.4 °F 78% 30.09 in 10.0 mi SE 8.1 mph - N/A   Scattered Clouds
4:55 AM 71.6 °F - 66.2 °F 83% 30.09 in 10.0 mi ESE 9.2 mph - N/A   Mostly Cloudy
5:15 AM 71.6 °F - 68.0 °F 88% 30.10 in 10.0 mi SE 5.8 mph - N/A   Overcast
5:35 AM 71.6 °F - 66.2 °F 83% 30.10 in 7.0 mi ESE 8.1 mph - N/A Rain Light Rain
5:55 AM 71.6 °F - 66.2 °F 83% 30.11 in 10.0 mi SE 11.5 mph 17.3 mph N/A   Overcast
6:15 AM 71.6 °F - 68.0 °F 88% 30.11 in 7.0 mi ESE 12.7 mph 18.4 mph N/A   Overcast
6:47 AM 71.6 °F - 50.0 °F 46% 30.12 in 6.0 mi ESE 5.8 mph - N/A Rain Light Rain
8:47 AM 73.4 °F - 68.0 °F 83% 30.15 in 10.0 mi East 13.8 mph 19.6 mph N/A   Mostly Cloudy
9:47 AM 75.2 °F - 68.0 °F 78% 30.17 in 10.0 mi East 13.8 mph 19.6 mph N/A   Mostly Cloudy
11:47 AM 78.8 °F - 66.2 °F 65% 30.20 in 7.0 mi East 13.8 mph 20.7 mph N/A   Mostly Cloudy
12:47 PM 80.6 °F 82.7 °F 66.2 °F 61% 30.18 in 7.0 mi ESE 18.4 mph 23.0 mph N/A   Mostly Cloudy
1:47 PM 78.8 °F - 66.2 °F 65% 30.18 in 7.0 mi East 13.8 mph 20.7 mph N/A   Mostly Cloudy
2:47 PM 77.0 °F - 64.4 °F 65% 30.16 in 7.0 mi ESE 13.8 mph 21.9 mph N/A   Mostly Cloudy
3:47 PM 78.8 °F - 64.4 °F 61% 30.15 in 7.0 mi East 15.0 mph 21.9 mph N/A   Mostly Cloudy
4:47 PM 78.8 °F - 62.6 °F 57% 30.13 in 7.0 mi East 13.8 mph 20.7 mph N/A   Mostly Cloudy
5:47 PM 77.0 °F - 62.6 °F 61% 30.14 in 7.0 mi East 13.8 mph 19.6 mph N/A   Mostly Cloudy
8:15 PM 73.4 °F - 62.6 °F 69% 30.14 in 10.0 mi East 8.1 mph - N/A   Clear
8:35 PM 73.4 °F - 62.6 °F 69% 30.14 in 10.0 mi East 8.1 mph - N/A   Clear
8:55 PM 73.4 °F - 62.6 °F 69% 30.15 in 10.0 mi East 9.2 mph - N/A   Clear
9:15 PM 73.4 °F - 62.6 °F 69% 30.15 in 10.0 mi East 9.2 mph - N/A   Clear
9:35 PM 73.4 °F - 62.6 °F 69% 30.15 in 10.0 mi East 10.4 mph - N/A   Clear
9:55 PM 73.4 °F - 62.6 °F 69% 30.15 in 10.0 mi East 10.4 mph - N/A   Clear
10:15 PM 73.4 °F - 64.4 °F 73% 30.15 in 10.0 mi East 10.4 mph - N/A   Clear
10:55 PM 73.4 °F - 62.6 °F 69% 30.15 in 10.0 mi East 11.5 mph - N/A   Clear
11:15 PM 73.4 °F - 64.4 °F 73% 30.15 in 10.0 mi East 10.4 mph - N/A   Clear
11:35 PM 73.4 °F - 64.4 °F 73% 30.14 in 10.0 mi East 9.2 mph - N/A   Clear
11:55 PM 71.6 °F - 64.4 °F 78% 30.14 in 10.0 mi East 9.2 mph - N/A   Clear